Webcam Castelli Romani more information Webcam Castelli Romani


Webcam Traffico live more information Webcam Traffico live


altri nostri siti meteo:

Meteo-CloudBanner Meteo-Cloud

Pomeziameteo 1Sito sul meteo

Pomeziameteo DashboardSito sul meteo

Caput FrigorisSito sul meteo

BarcellonameteoSito sul meteo

MeteoipassiSito sul meteo

ViterbometeoSito sul meteo

TortoretometeolidoSito sul meteo

MeteospinacetoSito sul meteo

MeteoardeaSito sul meteo

MeteopalestrinaSito sul meteo

MeteocastelliSito sul meteo

MeteoiserniaSito sul meteo

RomaeurmeteoSito sul meteo

MeteomarconiaSito sul meteo

CastelnuovovomanometeoSito sul meteo

MeteogonzagaSito sul meteo

MeteonetworkInvio dai a Meteonetwork

Rete Linea MeteoInvio dai a Meteonetwork

DesotermicaBanner Desotermica



Non è richiesta alcuna attenzione speciale.    Non sono presenti avvisi meteorologici di particolare rilevanza

Select another period ( hide this area )

Unita Periodo Custom range Directly to
Metrico Inglese Entrambi
Quotidiano Settimanale mensile Annuale
use both date-selectors for a custom range
previous Day
With this date

WeatherUnderground graphs for this period ( click here )



Warning: Division by zero in /web/htdocs/www.meteopomezia.it/home/weather28/wu/WU-History4.php on line 835
Quotidiano Riepilogo per Sabato 17 novembre 2018
Tempo Temp. ( °C ) Dew pt. ( °C ) Vento ( km/h ) da Raffica ( km/h ) Pressione ( hPa ) Humid.( % ) Rainrate ( cm ) solare ( W/m2 )
Max10,4 2,5 14,5 NO ( 37/85 ) 20,9 1018,5 67 - 0
Media8,6 1,7 2,1 calma #44/68 12,2 1019,2 62 - NAN #0/68
Min7,7 1,3 -   0,0 1016,8 57 -  
Quotidiano Tabular details for Sabato 17 novembre 2018
Tempo Temp. ( °C ) Dew pt. ( °C ) Vento ( km/h ) da Raffica ( km/h ) Pressione ( hPa ) Humid.( % ) Rainrate ( cm ) solare ( W/m2 )
00:00 10,4 2,5   calma 1,6 1018,5 58 - -
00:05 10,3 2,3 1,6 NO 1,6 1018,5 58 - -
00:10 10,2 2,3   calma 6,4 1018,5 58 - -
00:15 10,2 2,2 1,6 W 4,8 1018,5 58 - -
00:20 10,1 2,2   calma 4,8 1018,5 58 - -
00:25 9,9 2,1   calma 8,0 1018,5 58 - -
00:35 9,8 1,9   calma   1018,5 58 - -
00:40 9,8 1,9 3,2 W 4,8 1018,5 58 - -
00:50 9,8 1,9   calma 8,0 1018,2 58 - -
00:55 9,8 1,9 6,4 NO 9,7 1018,2 58 - -
01:00 9,7 1,6   calma 11,3 1018,2 57 - -
01:10 9,6 1,4 3,2 W 14,5 1018,2 57 - -
01:15 9,4 1,5 9,7 NO 12,9 1018,2 58 - -
01:20 9,3 1,7 1,6 NNW 12,9 1018,2 59 - -
01:30 9,1 1,5 1,6 NO 16,1 1018,2 59 - -
01:35 9,1 1,5   calma 16,1 1018,2 59 - -
01:40 9,2 1,6 12,9 NO 16,1 1018,2 59 - -
01:45 9,2 1,3   calma 14,5 1018,5 58 - -
01:50 9,2 1,3 3,2 NNW 14,5 1018,2 58 - -
01:55 9,2 1,3   calma 14,5 1018,5 58 - -
02:00 9,2 1,6   calma 9,7 1018,2 59 - -
02:05 9,1 1,5 9,7 Nord 17,7 1018,2 59 - -
02:10 8,9 1,6   calma 16,1 1018,2 60 - -
02:15 8,9 1,5   calma 14,5 1018,2 60 - -
02:20 8,8 1,7 3,2 NO 6,4 1018,2 61 - -
02:25 8,7 1,6   calma 12,9 1018,2 61 - -
02:30 8,6 1,7 8,0 NNW 8,0 1018,2 62 - -
02:35 8,6 1,7   calma 12,9 1018,2 62 - -
02:40 8,6 1,7   calma 9,7 1018,2 62 - -
02:45 8,5 1,6   calma 14,5 1017,8 62 - -
02:50 8,4 1,6   calma 12,9 1017,8 62 - -
02:55 8,4 1,8   calma 8,0 1017,8 63 - -
03:00 8,5 1,6   calma 3,2 1017,8 62 - -
03:05 8,5 1,6   calma 14,5 1017,8 62 - -
03:10 8,4 1,6   calma 12,9 1017,5 62 - -
03:15 8,4 1,5   calma 16,1 1017,8 62 - -
03:20 8,3 1,4   calma 16,1 1017,5 62 - -
03:25 8,3 1,6 1,6 NO 16,1 1017,5 63 - -
03:30 8,3 1,6 4,8 NO 14,5 1017,5 63 - -
03:35 8,2 1,6 9,7 NNW 16,1 1017,5 63 - -
03:40 8,2 1,5 8,0 NO 16,1 1017,5 63 - -
03:45 8,1 1,4 14,5 Nord 14,5 1017,5 63 - -
03:50 7,9 1,5   calma 16,1 1017,5 64 - -
03:55 7,9 1,5   calma 14,5 1017,2 64 - -
04:00 7,9 1,7   calma 14,5 1017,2 65 - -
04:05 7,9 1,5   calma 14,5 1017,2 64 - -
04:10 7,9 1,7   calma 14,5 1017,5 65 - -
04:15 7,9 1,7   calma 12,9 1017,2 65 - -
04:20 7,9 1,7   calma   1017,2 65 - -
04:25 8,0 1,8   calma 6,4 1017,2 65 - -
04:30 8,1 1,8   calma 12,9 1017,2 65 - -
04:40 8,0 1,8 9,7 West 12,9 1017,2 65 - -
04:45 7,8 1,6   calma 14,5 1017,2 65 - -
04:50 7,8 1,6   calma 14,5 1017,2 65 - -
04:55 7,8 1,6 9,7 NNW 14,5 1017,2 65 - -
05:00 7,8 1,6   calma 16,1 1017,2 65 - -
05:05 7,7 1,7   calma 17,7 1016,8 66 - -
05:10 7,8 1,8   calma 20,9 1016,8 66 - -
05:15 7,7 1,7 1,6 S 17,7 1016,8 66 - -
05:20 7,7 1,7   calma 12,9 1016,8 66 - -
05:25 7,7 1,7   calma 17,7 1016,8 66 - -
05:30 7,9 1,9   calma 17,7 1016,8 66 - -
05:35 8,1 1,9 8,0 NO 17,7 1016,8 65 - -
05:40 8,0 1,8   calma 6,4 1016,8 65 - -
05:45 8,0 2,0 1,6 NO 9,7 1016,8 66 - -
05:50 8,0 2,0 1,6 NNW 16,1 1016,8 66 - -
05:55 7,8 1,8   calma 12,9 1016,8 66 - -
06:00 7,8 2,0   calma 12,9 1016,8 67 - -
Quotidiano Riepilogo per Sabato 17 novembre 2018
Tempo Temp. ( °C ) Dew pt. ( °C ) Vento ( km/h ) da Raffica ( km/h ) Pressione ( hPa ) Humid.( % ) Rainrate ( cm ) solare ( W/m2 )
Max10,4 2,5 14,5 NO ( 37/85 ) 20,9 1018,5 67 - 0
Media8,6 1,7 2,1 calma #44/68 12,2 1019,2 62 - NAN #0/68
Min7,7 1,3 -   0,0 1016,8 57 -  
Quotidiano Tabular details for Sabato 17 novembre 2018
Tempo Temp. ( °C ) Dew pt. ( °C ) Vento ( km/h ) da Raffica ( km/h ) Pressione ( hPa ) Humid.( % ) Rainrate ( cm ) solare ( W/m2 )
00:00 10,4 2,5   calma 1,6 1018,5 58 - -
00:05 10,3 2,3 1,6 NO 1,6 1018,5 58 - -
00:10 10,2 2,3   calma 6,4 1018,5 58 - -
00:15 10,2 2,2 1,6 W 4,8 1018,5 58 - -
00:20 10,1 2,2   calma 4,8 1018,5 58 - -
00:25 9,9 2,1   calma 8,0 1018,5 58 - -
00:35 9,8 1,9   calma   1018,5 58 - -
00:40 9,8 1,9 3,2 W 4,8 1018,5 58 - -
00:50 9,8 1,9   calma 8,0 1018,2 58 - -
00:55 9,8 1,9 6,4 NO 9,7 1018,2 58 - -
01:00 9,7 1,6   calma 11,3 1018,2 57 - -
01:10 9,6 1,4 3,2 W 14,5 1018,2 57 - -
01:15 9,4 1,5 9,7 NO 12,9 1018,2 58 - -
01:20 9,3 1,7 1,6 NNW 12,9 1018,2 59 - -
01:30 9,1 1,5 1,6 NO 16,1 1018,2 59 - -
01:35 9,1 1,5   calma 16,1 1018,2 59 - -
01:40 9,2 1,6 12,9 NO 16,1 1018,2 59 - -
01:45 9,2 1,3   calma 14,5 1018,5 58 - -
01:50 9,2 1,3 3,2 NNW 14,5 1018,2 58 - -
01:55 9,2 1,3   calma 14,5 1018,5 58 - -
02:00 9,2 1,6   calma 9,7 1018,2 59 - -
02:05 9,1 1,5 9,7 Nord 17,7 1018,2 59 - -
02:10 8,9 1,6   calma 16,1 1018,2 60 - -
02:15 8,9 1,5   calma 14,5 1018,2 60 - -
02:20 8,8 1,7 3,2 NO 6,4 1018,2 61 - -
02:25 8,7 1,6   calma 12,9 1018,2 61 - -
02:30 8,6 1,7 8,0 NNW 8,0 1018,2 62 - -
02:35 8,6 1,7   calma 12,9 1018,2 62 - -
02:40 8,6 1,7   calma 9,7 1018,2 62 - -
02:45 8,5 1,6   calma 14,5 1017,8 62 - -
02:50 8,4 1,6   calma 12,9 1017,8 62 - -
02:55 8,4 1,8   calma 8,0 1017,8 63 - -
03:00 8,5 1,6   calma 3,2 1017,8 62 - -
03:05 8,5 1,6   calma 14,5 1017,8 62 - -
03:10 8,4 1,6   calma 12,9 1017,5 62 - -
03:15 8,4 1,5   calma 16,1 1017,8 62 - -
03:20 8,3 1,4   calma 16,1 1017,5 62 - -
03:25 8,3 1,6 1,6 NO 16,1 1017,5 63 - -
03:30 8,3 1,6 4,8 NO 14,5 1017,5 63 - -
03:35 8,2 1,6 9,7 NNW 16,1 1017,5 63 - -
03:40 8,2 1,5 8,0 NO 16,1 1017,5 63 - -
03:45 8,1 1,4 14,5 Nord 14,5 1017,5 63 - -
03:50 7,9 1,5   calma 16,1 1017,5 64 - -
03:55 7,9 1,5   calma 14,5 1017,2 64 - -
04:00 7,9 1,7   calma 14,5 1017,2 65 - -
04:05 7,9 1,5   calma 14,5 1017,2 64 - -
04:10 7,9 1,7   calma 14,5 1017,5 65 - -
04:15 7,9 1,7   calma 12,9 1017,2 65 - -
04:20 7,9 1,7   calma   1017,2 65 - -
04:25 8,0 1,8   calma 6,4 1017,2 65 - -
04:30 8,1 1,8   calma 12,9 1017,2 65 - -
04:40 8,0 1,8 9,7 West 12,9 1017,2 65 - -
04:45 7,8 1,6   calma 14,5 1017,2 65 - -
04:50 7,8 1,6   calma 14,5 1017,2 65 - -
04:55 7,8 1,6 9,7 NNW 14,5 1017,2 65 - -
05:00 7,8 1,6   calma 16,1 1017,2 65 - -
05:05 7,7 1,7   calma 17,7 1016,8 66 - -
05:10 7,8 1,8   calma 20,9 1016,8 66 - -
05:15 7,7 1,7 1,6 S 17,7 1016,8 66 - -
05:20 7,7 1,7   calma 12,9 1016,8 66 - -
05:25 7,7 1,7   calma 17,7 1016,8 66 - -
05:30 7,9 1,9   calma 17,7 1016,8 66 - -
05:35 8,1 1,9 8,0 NO 17,7 1016,8 65 - -
05:40 8,0 1,8   calma 6,4 1016,8 65 - -
05:45 8,0 2,0 1,6 NO 9,7 1016,8 66 - -
05:50 8,0 2,0 1,6 NNW 16,1 1016,8 66 - -
05:55 7,8 1,8   calma 12,9 1016,8 66 - -
06:00 7,8 2,0   calma 12,9 1016,8 67 - -

Download your copy of this data-set  here

Our weather-data as stored at Weather Underground. Script sviluppato da Jim McMurry. Adattato per il modello da Leuven-Template.eu

Potete trovare le nostre info meteo anche a:

UK Metoffice

European Weather Network

Weather Underground

AWEKAS

Citizen Weather Observer Program (CWOP)

HAMweather, WeatherForYou, PWS Weather

Strumentazione usata:

Stazione meteo
Davis VP2

Programma gestore dati meteo
WVIEW

Server per i dati meteo
Pc-WDS5

Provider
PC-HP-6005

Davis VP2

WVIEW

Pc-WDS5

PC-HP-6005